DELTA 1 DEB, 2775

Orbit data source: Space-Track

DELTA 1 DEB, 2775 is space debris in SSO originally from a launch on Sun, 02 Oct 1966 UTC launched from the Air Force Western Test Range (AFWTR). Debris objects in space refer to the collection of defunct objects orbiting the Earth. Examples of debris include non-operational satellites, rocket bodies, and fragments generated from explosions, collisions, or faulty payload assembly.

Loading next visibility...
Identifier
2775, 1966-087D
Orbit
SSO
Country
Flag of USUS
Related business
Manufacturer
Unknown
Mission
Spacecraft
Bus & Motor
Unknown
Mass
1 kg wet, 1 kg dry
Launch date (UTC)
1966-10-02 (60 years ago)
Launch vehicle
Unknown
Launch site
Air Force Western Test Range (AFWTR)
Object type
Payload
Rocket body
Debris
Shape & HBR
Unknown
Radar Cross Section
Medium (>0.1 m² and <1 m²)

Expand to show TLE details & history
Last TLE update: 1 week ago

TLE from 1 week ago
0 DELTA 1 DEB
1 02775U 66087D   26151.96821231 -.00000023  00000-0  89622-4 0  9992
2 02775 100.9216 156.9373 0125130 157.3210 232.4936 12.71698352768270
Epoch: 2026-05-31T23:14Z
TLE epoch observation values (Epoch: 2026-05-31T23:14:13.543Z)
Latitude
28.16292°
Longitude
-86.98161°
Altitude
1,438.092 km
Speed
7.117 km/s
True Right ascension
10h 04m 08s
True Declination
28° 01' 57"
Sunlit
Object was in daylight at epoch
Visualization orbit readout
Latitude
Unknown
Longitude
Unknown
Altitude
Unknown
Speed
Unknown
Apparent Right ascension
Unknown
Apparent Declination
Unknown
Sunlit
N/A
Visualization observer readout
Local Sidereal Time
13:21:34
Azimuth
Unknown
Elevation
Unknown
Doppler factor
Unknown
Orbital elements
Apogee altitude
1,469.483 km
Perigee altitude
1,275.516 km
Semi-major axis
7,750.637 km
Eccentricity
0.01251
Inclination
100.9216°
RAAN
156.9373°
Arg. of periapsis
157.321°
True anomaly
231.36693°
Mean anomaly
232.4936°
Eccentric anomaly
231.92919°
Mean motion
3.18081 °/min
Orbital period
113.18 mins
BSTAR
0.000089622
Loading maneuver chart data...
Computing Atmospheric mass density...
Loading historical data...
Loading historical data...
Loading historical data...
Loading historical data...
Loading historical data...
Loading historical data...
Loading historical data...
Other satellites on launch #87 in the year 1966 (1966-10-02 UTC)

Documentation

Showing up to 5 results
|